Home   Weather   Wagga Wagga   Past weeks

Flag for Australia Past Weather in Wagga Wagga, New South Wales, Australia — Yesterday and Last 2 Weeks

Now
59 °F

Sunny.


Feels Like: 58 °F
Forecast: 61 / 97 °F
Wind: 6 mph from East

Location: Wagga Airport

Current Time: Dec 4, 2016 at 7:03:46 am

Latest Report: Dec 4, 2016 at 6:00 am


Visibility: N/A

Pressure: 29.92 "Hg

Humidity: 51%

Dew Point: 41 °F

Location of Wagga WaggaLocation

Past Weather in Wagga Wagga — Graph

°F

Wagga Wagga Temperature Yesterday

Maximum temperature yesterday: 91 °F (at 3:00 pm)
Minimum temperature yesterday: 54 °F (at 6:00 am)
Average temperature yesterday: 75 °F

High & Low Weather Summary for the Past Weeks

 TemperatureHumidityPressure
High95 °F (Nov 21, 2:00 pm)94% (Nov 23, 10:00 am)30.07 "Hg (Nov 23, 10:00 am)
Low43 °F (Nov 24, 5:00 am)5% (Nov 30, 4:00 pm)29.65 "Hg (Nov 30, 4:00 pm)
Average70 °F45%29.90 "Hg
* Reported Nov 19 7:00 am — Dec 4 6:00 am, Wagga Wagga, Weather by CustomWeather, © 2016

Note: Actual official high and low records may vary slightly from our data, if they occured in-between our weather recording intervals... More about our weather records

Advertising

Wagga Wagga Weather History for the Previous 24 Hours

Scroll right to see more
 ConditionsComfort  
Time TempWeatherWind HumidityBarometerVisibility
6:00 am
Sun, Dec 4
59 °FSunny.6 mph51%29.92 "HgN/A
5:00 am63 °FClear.8 mph42%29.89 "HgN/A
4:00 am64 °FClear.6 mph40%29.89 "HgN/A
3:00 am63 °FClear.6 mph42%29.89 "HgN/A
2:00 am66 °FClear.8 mph35%29.89 "HgN/A
1:00 am64 °FClear.7 mph43%29.89 "HgN/A
12:00 am64 °FClear.3 mph49%29.92 "HgN/A
11:00 pm
Sat, Dec 3
72 °FClear.6 mph29%29.92 "HgN/A
10:00 pm70 °FClear.10 mph38%29.92 "HgN/A
9:00 pm73 °FClear.8 mph25%29.89 "HgN/A
8:00 pm81 °FSunny.6 mph28%29.89 "HgN/A
7:00 pm88 °FSunny.10 mph11%29.86 "HgN/A
6:00 pm90 °FSunny.13 mph10%29.86 "HgN/A
5:00 pm91 °FSunny.14 mph10%29.86 "HgN/A
4:00 pm91 °FSunny.16 mph11%29.86 "HgN/A
3:00 pm91 °FSunny.14 mph12%29.89 "HgN/A
2:00 pm90 °FSunny.10 mph15%29.89 "HgN/A
1:00 pm86 °FSunny.9 mph19%29.89 "HgN/A
12:00 pm86 °FSunny.7 mph20%29.92 "HgN/A
11:00 am84 °FSunny.6 mph25%29.92 "HgN/A
10:00 am79 °FSunny.5 mph32%29.95 "HgN/A
9:00 am75 °FSunny.8 mph39%29.95 "HgN/A
8:00 am68 °FSunny.8 mph46%29.92 "HgN/A
7:00 am63 °FSunny.3 mph59%29.92 "HgN/A
Weather by CustomWeather, © 2016

See weather overviewHow to use our weather pages